• In Russia
  • List of Countries
  • For 7 days
  • Water Temperature
  • Weather Map
  • Weather Widgets
  • user-avatar
    Login

    Hourly Weather Mochudi

    Today, 6 December, Friday

    Time Temperature Precipitation Wind Pressure Humidity
    00:00 +18°C° 0 mm 3 mps 682 mmHg 75%
    01:00 +18°C° 0 mm 3 mps 681 mmHg 75%
    02:00 +19°C° 0 mm 3 mps 682 mmHg 74%
    03:00 +19°C° 0 mm 3 mps 681 mmHg 73%
    04:00 +18°C° 0 mm 4 mps 681 mmHg 73%
    05:00 +18°C° 0 mm 4 mps 681 mmHg 72%
    06:00 +18°C° 0 mm 4 mps 681 mmHg 71%
    07:00 +19°C° 0 mm 4 mps 681 mmHg 70%
    08:00 +19°C° 0 mm 4 mps 682 mmHg 72%
    09:00 +20°C° 0.1 mm 4 mps 682 mmHg 72%
    10:00 +20°C° 0.1 mm 3 mps 681 mmHg 71%
    11:00 +20°C° 0.1 mm 3 mps 681 mmHg 71%
    12:00 +23°C° 0 mm 2 mps 680 mmHg 65%
    13:00 +25°C° 0 mm 2 mps 680 mmHg 58%
    14:00 +25°C° 0 mm 2 mps 681 mmHg 57%
    15:00 +26°C° 0 mm 2 mps 680 mmHg 56%
    16:00 +26°C° 0 mm 2 mps 680 mmHg 55%
    17:00 +26°C° 0 mm 2 mps 679 mmHg 54%
    18:00 +25°C° 0 mm 3 mps 679 mmHg 59%
    19:00 +23°C° 0 mm 4 mps 679 mmHg 65%
    20:00 +21°C° 0 mm 5 mps 679 mmHg 71%
    21:00 +21°C° 0 mm 4 mps 678 mmHg 72%
    22:00 +21°C° 0 mm 4 mps 678 mmHg 73%
    23:00 +20°C° 0 mm 3 mps 678 mmHg 75%

    Tomorrow, 7 December, Saturday

    Time Temperature Precipitation Wind Pressure Humidity
    00:00 +20°C° 0 mm 3 mps 678 mmHg 74%
    01:00 +20°C° 0 mm 2 mps 678 mmHg 74%
    02:00 +20°C° 0 mm 2 mps 677 mmHg 74%
    03:00 +20°C° 0.1 mm 2 mps 677 mmHg 74%
    04:00 +20°C° 0.1 mm 2 mps 677 mmHg 74%
    05:00 +20°C° 0.1 mm 2 mps 677 mmHg 75%
    06:00 +20°C° 0.6 mm 2 mps 677 mmHg 78%
    07:00 +20°C° 0.6 mm 3 mps 677 mmHg 82%
    08:00 +20°C° 0.6 mm 3 mps 678 mmHg 85%
    09:00 +20°C° 2 mm 3 mps 678 mmHg 87%
    10:00 +19°C° 2 mm 3 mps 677 mmHg 89%
    11:00 +19°C° 2 mm 2 mps 677 mmHg 91%
    12:00 +20°C° 1.5 mm 3 mps 677 mmHg 88%
    13:00 +21°C° 1.5 mm 3 mps 677 mmHg 86%
    14:00 +21°C° 1.5 mm 3 mps 677 mmHg 83%
    15:00 +22°C° 0.1 mm 3 mps 676 mmHg 79%
    16:00 +24°C° 0.1 mm 3 mps 676 mmHg 75%
    17:00 +25°C° 0.1 mm 3 mps 676 mmHg 71%
    18:00 +24°C° 0.7 mm 3 mps 676 mmHg 76%
    19:00 +24°C° 0.7 mm 3 mps 676 mmHg 81%
    20:00 +22°C° 0.7 mm 4 mps 676 mmHg 85%
    21:00 +21°C° 0.1 mm 3 mps 676 mmHg 87%
    22:00 +21°C° 0.1 mm 2 mps 676 mmHg 89%
    23:00 +20°C° 0.1 mm 2 mps 676 mmHg 91%

    Day after tomorrow, 8 December, Sunday

    Time Temperature Precipitation Wind Pressure Humidity
    00:00 +22°C° 0 mm 1 mps 676 mmHg 91%
    01:00 +22°C° 0 mm 1 mps 676 mmHg 91%
    02:00 +22°C° 0 mm 1 mps 676 mmHg 90%
    03:00 +22°C° 0.1 mm 1 mps 676 mmHg 91%
    04:00 +22°C° 0.1 mm 1 mps 676 mmHg 91%
    05:00 +21°C° 0.1 mm 2 mps 676 mmHg 91%
    06:00 +23°C° 0.5 mm 2 mps 676 mmHg 88%
    07:00 +22°C° 0.5 mm 3 mps 676 mmHg 84%
    08:00 +23°C° 0.5 mm 4 mps 677 mmHg 81%
    09:00 +25°C° 0.8 mm 4 mps 677 mmHg 75%
    10:00 +26°C° 0.8 mm 4 mps 677 mmHg 70%
    11:00 +28°C° 0.8 mm 4 mps 677 mmHg 64%
    12:00 +28°C° 0.9 mm 3 mps 676 mmHg 60%
    13:00 +29°C° 0.9 mm 3 mps 676 mmHg 56%
    14:00 +30°C° 0.9 mm 3 mps 675 mmHg 52%
    15:00 +30°C° 0.6 mm 3 mps 675 mmHg 54%
    16:00 +29°C° 0.6 mm 3 mps 675 mmHg 56%
    17:00 +29°C° 0.6 mm 3 mps 674 mmHg 58%
    18:00 +28°C° 0.3 mm 3 mps 674 mmHg 63%
    19:00 +27°C° 0.3 mm 3 mps 674 mmHg 69%
    20:00 +26°C° 0.3 mm 3 mps 674 mmHg 74%
    21:00 +25°C° 0.8 mm 3 mps 675 mmHg 76%
    22:00 +25°C° 0.8 mm 3 mps 675 mmHg 79%
    23:00 +24°C° 0.8 mm 3 mps 675 mmHg 81%

    9 December, Monday

    Time Temperature Precipitation Wind Pressure Humidity
    00:00 +24°C° 0.5 mm 3 mps 675 mmHg 82%
    01:00 +23°C° 0.5 mm 4 mps 675 mmHg 83%
    02:00 +22°C° 0.5 mm 4 mps 674 mmHg 83%
    03:00 +22°C° 0.8 mm 4 mps 674 mmHg 84%
    04:00 +21°C° 0.8 mm 4 mps 674 mmHg 85%
    05:00 +21°C° 0.8 mm 4 mps 674 mmHg 86%
    06:00 +22°C° 0 mm 5 mps 675 mmHg 81%
    07:00 +23°C° 0 mm 5 mps 675 mmHg 76%
    08:00 +26°C° 0 mm 5 mps 675 mmHg 71%
    09:00 +27°C° 1.1 mm 5 mps 676 mmHg 64%
    10:00 +28°C° 1.1 mm 5 mps 676 mmHg 58%
    11:00 +30°C° 1.1 mm 5 mps 676 mmHg 51%
    12:00 +30°C° 0.2 mm 5 mps 675 mmHg 51%
    13:00 +30°C° 0.2 mm 5 mps 675 mmHg 51%
    14:00 +29°C° 0.2 mm 5 mps 674 mmHg 52%
    15:00 +28°C° 0.8 mm 5 mps 674 mmHg 58%
    16:00 +27°C° 0.8 mm 5 mps 674 mmHg 65%
    17:00 +25°C° 0.8 mm 5 mps 674 mmHg 72%
    18:00 +25°C° 0.8 mm 5 mps 674 mmHg 74%
    19:00 +23°C° 0.8 mm 4 mps 675 mmHg 76%
    20:00 +22°C° 0.8 mm 3 mps 675 mmHg 79%
    21:00 +22°C° 0.5 mm 3 mps 676 mmHg 80%
    22:00 +22°C° 0.5 mm 3 mps 676 mmHg 80%
    23:00 +21°C° 0.5 mm 2 mps 676 mmHg 81%

    10 December, Tuesday

    Time Temperature Precipitation Wind Pressure Humidity
    00:00 +21°C° 0.1 mm 2 mps 676 mmHg 83%
    01:00 +20°C° 0.1 mm 2 mps 675 mmHg 85%
    02:00 +20°C° 0.1 mm 2 mps 675 mmHg 86%
    03:00 +20°C° 0 mm 2 mps 675 mmHg 88%
    04:00 +19°C° 0 mm 2 mps 675 mmHg 90%
    05:00 +19°C° 0 mm 2 mps 675 mmHg 93%
    06:00 +20°C° 0.1 mm 3 mps 676 mmHg 88%
    07:00 +21°C° 0.1 mm 3 mps 676 mmHg 83%
    08:00 +22°C° 0.1 mm 3 mps 677 mmHg 79%
    09:00 +26°C° 0.4 mm 2 mps 677 mmHg 66%
    10:00 +28°C° 0.4 mm 2 mps 677 mmHg 53%
    11:00 +30°C° 0.4 mm 1 mps 678 mmHg 40%
    12:00 +31°C° 0 mm 1 mps 677 mmHg 36%
    13:00 +31°C° 0 mm 2 mps 677 mmHg 32%
    14:00 +32°C° 0 mm 2 mps 676 mmHg 29%
    15:00 +32°C° 0 mm 2 mps 676 mmHg 29%
    16:00 +31°C° 0 mm 1 mps 676 mmHg 29%
    17:00 +31°C° 0 mm 1 mps 675 mmHg 29%
    18:00 +30°C° 0 mm 1 mps 676 mmHg 31%
    19:00 +29°C° 0 mm 1 mps 676 mmHg 33%
    20:00 +28°C° 0 mm 1 mps 676 mmHg 36%
    21:00 +27°C° 0 mm 1 mps 676 mmHg 37%
    22:00 +26°C° 0 mm 1 mps 676 mmHg 39%
    23:00 +25°C° 0 mm 1 mps 676 mmHg 40%

    11 December, Wednesday

    Time Temperature Precipitation Wind Pressure Humidity
    00:00 +25°C° 0 mm 1 mps 676 mmHg 41%
    01:00 +24°C° 0 mm 1 mps 676 mmHg 42%
    02:00 +22°C° 0 mm 0 mps 676 mmHg 42%
    03:00 +23°C° 0 mm 1 mps 676 mmHg 49%
    04:00 +22°C° 0 mm 1 mps 676 mmHg 56%
    05:00 +21°C° 0 mm 1 mps 676 mmHg 63%
    06:00 +23°C° 0 mm 1 mps 676 mmHg 59%
    07:00 +25°C° 0 mm 1 mps 677 mmHg 55%
    08:00 +27°C° 0 mm 1 mps 677 mmHg 51%
    09:00 +29°C° 0 mm 1 mps 678 mmHg 43%
    10:00 +31°C° 0 mm 1 mps 678 mmHg 34%
    11:00 +32°C° 0 mm 0 mps 679 mmHg 25%
    12:00 +34°C° 0 mm 1 mps 678 mmHg 23%
    13:00 +36°C° 0 mm 2 mps 678 mmHg 20%
    14:00 +36°C° 0 mm 3 mps 677 mmHg 18%
    15:00 +36°C° 0 mm 3 mps 677 mmHg 18%
    16:00 +36°C° 0 mm 2 mps 677 mmHg 18%
    17:00 +35°C° 0 mm 2 mps 676 mmHg 18%
    18:00 +34°C° 0 mm 2 mps 676 mmHg 21%
    19:00 +31°C° 0 mm 2 mps 676 mmHg 25%
    20:00 +29°C° 0 mm 1 mps 676 mmHg 28%
    21:00 +28°C° 0 mm 1 mps 676 mmHg 31%
    22:00 +27°C° 0 mm 1 mps 676 mmHg 34%
    23:00 +27°C° 0 mm 1 mps 677 mmHg 36%
    Show more